Location: *
(47.2969°N, 10.2930°E)
Time: 09:51:32
(UTC+00:00)

Cosmos 1833 Rocket - Pass Details

Date: 09 April 2020
Orbit: 834 x 838 km, 71.0° (Epoch: 06 June)

Event Time Altitude Azimuth Distance (km) Brightness Sun altitude
Exits shadow 20:38:26 43° 78° (ENE) 1,161 3.1 -24.1°
Drops below altitude 10° 20:42:49 10° 37° (NE) 2,459 5.2 -24.7°
Sets 20:45:20 0° 32° (NNE) 3,397 6.0 -24.9°
